Weather History for Fort Polk, LA

Change the Weather History Date:

Tuesday, September 11, 2012

  Actual Average Record
Temperature  
Mean Temperature 74 °F -  
Max Temperature 86 °F 87 °F 96 °F (2002)
Min Temperature 61 °F 67 °F 61 °F (2012)
Cooling Degree Days 8    
Growing Degree Days 24 (Base 50)    
Moisture  
Dew Point 58 °F    
Average Humidity 63    
Maximum Humidity 87    
Minimum Humidity 35    
Precipitation  
Precipitation 0.00 in - - ()
Sea Level Pressure  
Sea Level Pressure 30.09 in    
Wind  
Wind Speed 2 mph (SE)    
Max Wind Speed 9 mph    
Max Gust Speed -    
Visibility 10 miles    
Events      
Averages and records for this station are not official NWS values.
T = Trace of Precipitation, MM = Missing Value Source: NWS Daily Summary

Daily Weather History Graph

Daily Weather History Graph

Search for Another Location

Airport:

Trip Planner

Search our weather history database for the weather conditions in past years. The results will help you decide how hot, cold, wet, or windy it might be!

Date:

Astronomy

Sep. 11, 2012 Rise Set
Actual Time 6:54 AM CDT 7:22 PM CDT
Civil Twilight 6:30 AM CDT 7:47 PM CDT
Nautical Twilight 6:02 AM CDT 8:15 PM CDT
Astronomical Twilight 5:33 AM CDT 8:44 PM CDT
Moon 2:27 AM CDT (9/11) 4:20 PM CDT (9/11)
Length of Visible Light 13h 16m
Length of Day
12h 27m
Waning Crescent, 21% of the Moon is Illuminated
Sep 11
Waning Crescent
Sep 15
New
Sep 22
First Quarter
Sep 29
Full
Oct 8
Last Quarter

Hourly Weather History & Observations

Time (CDT) Temp. Heat Index Dew Point Humidity Pressure Visibility Wind Dir Wind Speed Gust Speed Precip Events Conditions
12:55 AM 64.9 °F - 59.0 °F 81% 30.08 in 10.0 mi Calm Calm - N/A   Clear
1:55 AM 64.0 °F - 57.9 °F 80% 30.08 in 10.0 mi Calm Calm - N/A   Clear
2:55 AM 63.0 °F - 57.9 °F 84% 30.08 in 10.0 mi Calm Calm - N/A   Clear
3:55 AM 62.1 °F - 57.9 °F 86% 30.07 in 10.0 mi Calm Calm - N/A   Clear
4:55 AM 61.0 °F - 57.0 °F 87% 30.09 in 10.0 mi Calm Calm - N/A   Clear
5:55 AM 61.0 °F - 57.0 °F 87% 30.09 in 10.0 mi Calm Calm - N/A   Clear
6:55 AM 61.0 °F - 57.0 °F 87% 30.11 in 10.0 mi Calm Calm - N/A   Clear
7:55 AM 64.0 °F - 60.1 °F 87% 30.12 in 10.0 mi Calm Calm - N/A   Clear
8:55 AM 73.0 °F - 60.1 °F 64% 30.13 in 10.0 mi Calm Calm - N/A   Clear
9:55 AM 79.0 °F - 59.0 °F 50% 30.14 in 10.0 mi East 4.6 mph - N/A   Clear
10:55 AM 82.0 °F 81.6 °F 55.9 °F 41% 30.15 in 10.0 mi ESE 9.2 mph - N/A   Clear
11:55 AM 82.9 °F 82.0 °F 55.0 °F 38% 30.14 in 10.0 mi ESE 6.9 mph - N/A   Clear
12:55 PM 84.0 °F 82.6 °F 54.0 °F 35% 30.12 in 10.0 mi Variable 4.6 mph - N/A   Clear
1:55 PM 84.9 °F 83.6 °F 55.0 °F 36% 30.10 in 10.0 mi ESE 8.1 mph - N/A   Clear
2:55 PM 86.0 °F 84.7 °F 55.9 °F 36% 30.06 in 10.0 mi SSE 9.2 mph - N/A   Clear
3:55 PM 86.0 °F 84.7 °F 55.9 °F 36% 30.06 in 10.0 mi East 6.9 mph - N/A   Clear
4:55 PM 86.0 °F 84.9 °F 57.0 °F 37% 30.05 in 10.0 mi SSE 8.1 mph - N/A   Clear
5:55 PM 84.0 °F 83.3 °F 57.0 °F 40% 30.06 in 10.0 mi SE 6.9 mph - N/A   Clear
6:55 PM 80.1 °F 80.7 °F 59.0 °F 48% 30.06 in 10.0 mi SSE 5.8 mph - N/A   Clear
7:55 PM 75.0 °F - 60.1 °F 60% 30.07 in 10.0 mi SE 4.6 mph - N/A   Clear
8:55 PM 72.0 °F - 61.0 °F 68% 30.08 in 10.0 mi Calm Calm - N/A   Clear
9:55 PM 70.0 °F - 62.1 °F 76% 30.09 in 10.0 mi Calm Calm - N/A   Clear
10:55 PM 68.0 °F - 61.0 °F 78% 30.09 in 10.0 mi Calm Calm - N/A   Clear
11:55 PM 66.9 °F - 62.1 °F 84% 30.08 in 10.0 mi Calm Calm - N/A   Clear